User: anonymous
Location: Caribou
(46.8667°N, 68.0167°W)
Time: 12:47:24
(UTC-04:00)
Language:

SL-08 RB Rocket - Orbit

View from above orbital plane
View from above orbital plane
View from above satellite
View from above satellite

Ground track
Ground track

The orbit data is extracted from the following two-line orbital elements,

1 26387U 00033D   14107.81905341  .00000959  00000-0  17820-3 0  4782
2 26387 098.1101 176.1422 0027626 046.8432 089.7213 14.67205282738231
Epoch (UTC): 17 April 2014 19:39:26
Eccentricity: 0.0027626
inclination: 98.1101°
perigee height: 650 km
apogee height: 689 km
right ascension of ascending node: 176.1422°
argument of perigee: 46.8432°
revolutions per day: 14.67205282
mean anomaly at epoch: 89.7213°
orbit number at epoch: 73823

The dashed part of the orbit path shows where the satellite is in the earth's shadow,  

DLR